This is the latest recevied weather packets stored in our database for station/object W0DXV. If no packets are shown the sender has not sent any weather packets the latest 1 day(s).
| Time | Temp. | Humidity | Pressure | Rain* | Wind** | Luminosity | Snow |
|---|---|---|---|---|---|---|---|
| 1778077922 | 18.33° C | 79% | 1009.9 hPa | 0 mm | 0 m/s | 58 W/m² | - |
| 1778077621 | 18.33° C | 79% | 1010.2 hPa | 0 mm | 0.45 m/s, 237° | 58 W/m² | - |
| 1778077318 | 18.33° C | 78% | 1010 hPa | 0 mm | 0 m/s | 57 W/m² | - |
| 1778077016 | 18.33° C | 78% | 1010 hPa | 0 mm | 0.45 m/s, 239° | 71 W/m² | - |
| 1778076714 | 18.33° C | 77% | 1009.9 hPa | 0 mm | 0.45 m/s, 239° | 73 W/m² | - |
| 1778076411 | 18.33° C | 77% | 1010 hPa | 0 mm | 0 m/s | 69 W/m² | - |
| 1778076108 | 18.33° C | 76% | 1009.8 hPa | 0 mm | 0 m/s | 70 W/m² | - |
| 1778075805 | 18.89° C | 76% | 1009.9 hPa | 0 mm | 0.45 m/s, 238° | 84 W/m² | - |
| 1778075501 | 18.33° C | 76% | 1009.9 hPa | 0 mm | 0 m/s | 112 W/m² | - |
| 1778075198 | 18.33° C | 76% | 1009.7 hPa | 0 mm | 0 m/s | 108 W/m² | - |
| 1778074894 | 18.33° C | 76% | 1009.7 hPa | 0 mm | 0.89 m/s, 289° | 83 W/m² | - |
| 1778074591 | 17.78° C | 77% | 1009.5 hPa | 0 mm | 0.45 m/s, 229° | 62 W/m² | - |
| 1778074288 | 17.78° C | 76% | 1009.8 hPa | 0 mm | 0.45 m/s, 248° | 86 W/m² | - |
| 1778073985 | 17.78° C | 77% | 1009.8 hPa | 0 mm | 0.89 m/s, 231° | 79 W/m² | - |
| 1778073682 | 17.78° C | 78% | 1009.8 hPa | 0 mm | 0 m/s | 81 W/m² | - |
| 1778073380 | 17.78° C | 77% | 1010 hPa | 0 mm | 0.45 m/s, 261° | 76 W/m² | - |
| 1778073076 | 17.78° C | 77% | 1009.5 hPa | 0 mm | 0.45 m/s, 281° | 84 W/m² | - |
| 1778072773 | 17.78° C | 76% | 1009.6 hPa | 0 mm | 0.45 m/s, 243° | 83 W/m² | - |
| 1778072470 | 17.78° C | 76% | 1009.6 hPa | 0 mm | 0.89 m/s, 248° | 88 W/m² | - |
| 1778072169 | 17.78° C | 77% | 1009.2 hPa | 0 mm | 0.89 m/s, 228° | 109 W/m² | - |
| 1778071866 | 17.78° C | 78% | 1009.5 hPa | 0 mm | 0.45 m/s, 233° | 125 W/m² | - |
| 1778071564 | 17.78° C | 77% | 1009.6 hPa | 0 mm | 0.45 m/s, 242° | 115 W/m² | - |
| 1778071261 | 17.78° C | 77% | 1009.8 hPa | 0 mm | 0.45 m/s, 244° | 107 W/m² | - |
| 1778070959 | 17.78° C | 77% | 1009.8 hPa | 0 mm | 0.89 m/s, 216° | 108 W/m² | - |
| 1778070657 | 17.22° C | 77% | 1010.1 hPa | 0 mm | 0 m/s | 105 W/m² | - |
* Rain latest hour (hover to see other rain measurements)
** Current wind speed in m/s (hover to see current wind gust speed)